Date_and_time,latitude,longitude,wind_speed,RelWindDirFrom,WindDirFrom,air_pressure,air_temperature,relative_humidity,Temp,platform_speed_wrt_ground,air_pressure_at_mean_sea_level,platform_orientation
2018-06-17 00:00,50.9117166666667,-96.9825133333333,3.9,5.1,80,984.57,18.9,71,19.01,0.0,1010.50,125.1
2018-06-17 00:10,50.91172,-96.98252,4.3,5.4,97,984.43,18.5,72,19.00,0.0,1010.38,125.1
2018-06-17 00:20,50.9117283333333,-96.9825216666667,4.5,5.9,101,984.36,18.2,70,18.99,0.0,1010.32,125.1
2018-06-17 00:30,50.9117416666667,-96.9825366666667,3.0,5.3,92,984.39,18.3,68,18.98,0.0,1010.35,125.1
2018-06-17 00:40,50.91174,-96.98251,3.8,5.8,33,984.33,18.6,63,18.98,0.0,1010.28,125.1
2018-06-17 00:50,50.9117166666667,-96.9825483333333,4.9,11.7,17,984.19,18.9,54,18.97,0.0,1010.13,125.1
2018-06-17 01:00,50.9117316666667,-96.9825433333333,4.9,7.7,18,984.20,19.2,50,18.95,0.0,1010.13,270.0
2018-06-17 01:10,50.9117316666667,-96.98251,4.3,7.2,12,984.19,19.1,50,18.93,0.0,1010.12,270.0
2018-06-17 01:20,50.9117333333333,-96.9825216666667,4.4,7.2,9,984.07,19.0,51,18.92,0.0,1010.00,270.0
2018-06-17 01:30,50.9117316666667,-96.9825233333333,4.5,6.5,356,984.06,18.7,52,18.90,0.0,1009.99,270.0
2018-06-17 01:40,50.9117316666667,-96.9825233333333,4.8,7.0,352,984.00,18.5,52,18.89,0.0,1009.95,270.0
2018-06-17 01:50,50.9117316666667,-96.9825233333333,3.9,5.1,344,984.10,18.3,54,18.87,0.0,1010.07,270.0
2018-06-17 02:00,50.911745,-96.9825366666667,3.4,4.6,356,984.17,18.2,54,18.86,0.0,1010.16,17.9
2018-06-17 02:10,50.9117383333333,-96.9825283333333,2.8,3.9,0,984.21,18.4,52,18.85,0.0,1010.21,17.9
2018-06-17 02:20,50.9117216666667,-96.9825116666667,2.8,4.2,5,984.10,18.3,53,18.83,0.0,1010.09,17.9
2018-06-17 02:30,50.9117483333333,-96.982525,3.5,6.0,341,984.07,18.1,55,18.82,0.0,1010.07,17.9
2018-06-17 02:40,50.9117333333333,-96.982515,5.3,7.0,339,984.01,17.7,56,18.81,0.0,1010.00,17.9
2018-06-17 02:50,50.91176,-96.9825466666667,5.8,7.8,334,984.01,17.6,56,18.80,0.0,1010.00,17.9
2018-06-17 03:00,50.9117316666667,-96.98253,5.5,7.8,331,983.98,17.6,55,18.78,0.0,1009.97,328.2
2018-06-17 03:10,50.91173,-96.98253,5.2,8.0,321,984.03,17.5,56,18.76,0.0,1010.03,328.2
2018-06-17 03:20,50.9117316666667,-96.98253,6.2,8.7,322,984.11,17.5,55,18.75,0.0,1010.12,328.2
2018-06-17 03:30,50.9117316666667,-96.9825316666667,5.3,8.8,324,984.11,17.3,56,18.73,0.0,1010.14,328.2
2018-06-17 03:40,50.9117333333333,-96.9825333333333,6.1,10.8,322,983.95,17.3,55,18.71,0.0,1009.99,328.2
2018-06-17 03:50,50.9117333333333,-96.9825316666667,7.7,11.0,334,983.66,17.3,55,18.69,0.0,1009.69,328.2
2018-06-17 04:00,50.9117483333333,-96.982525,6.9,10.5,334,983.51,17.2,55,18.67,0.0,1009.54,30.2
2018-06-17 04:10,50.9117083333333,-96.9825183333333,5.7,8.3,327,983.47,17.0,56,18.66,0.0,1009.50,30.2
2018-06-17 04:20,50.9117216666667,-96.9825316666667,6.4,9.1,336,983.25,16.9,57,18.64,0.0,1009.30,30.2
2018-06-17 04:30,50.9117333333333,-96.982525,8.0,11.6,338,983.09,16.9,56,18.62,0.0,1009.14,30.2
2018-06-17 04:40,50.9117366666667,-96.9825233333333,6.7,9.4,334,983.26,16.8,57,18.60,0.0,1009.33,30.2
2018-06-17 04:50,50.9117433333333,-96.9825,5.4,8.9,325,983.57,16.7,58,18.59,0.0,1009.66,30.2
2018-06-17 05:00,50.91174,-96.9825416666667,5.7,9.0,327,983.73,16.6,58,18.57,0.0,1009.83,270.0
2018-06-17 05:10,50.91174,-96.9825466666667,5.0,7.6,330,983.80,16.4,60,18.56,0.0,1009.90,270.0
2018-06-17 05:20,50.911735,-96.982535,4.4,6.3,324,983.83,16.3,61,18.55,0.0,1009.95,270.0
2018-06-17 05:30,50.911735,-96.9825283333333,4.7,6.6,323,983.81,16.2,61,18.54,0.0,1009.94,270.0
2018-06-17 05:40,50.9117333333333,-96.9825266666667,4.3,6.3,309,984.00,16.2,61,18.52,0.0,1010.14,270.0
2018-06-17 05:50,50.9117316666667,-96.98253,4.3,6.8,311,984.21,16.1,62,18.51,0.0,1010.35,270.0
2018-06-17 06:00,50.91173,-96.9825316666667,5.4,8.3,304,984.37,16.1,63,18.50,0.0,1010.53,0.0
2018-06-17 06:10,50.91173,-96.98253,5.8,8.7,305,984.44,16.1,63,18.49,0.0,1010.61,0.0
2018-06-17 06:20,50.91173,-96.98253,5.3,7.5,320,984.37,16.1,63,18.47,0.0,1010.54,0.0
2018-06-17 06:30,50.9117333333333,-96.9825283333333,3.7,5.8,324,984.49,15.8,65,18.45,0.0,1010.68,0.0
2018-06-17 06:40,50.9117333333333,-96.98253,3.1,4.6,313,984.81,15.8,64,18.44,0.0,1011.01,0.0
2018-06-17 06:50,50.9117316666667,-96.98253,3.3,5.1,313,984.86,15.9,64,18.43,0.0,1011.06,0.0
2018-06-17 07:00,50.9117316666667,-96.98253,4.2,5.9,325,984.76,15.9,64,18.42,0.0,1010.97,360.0
2018-06-17 07:10,50.9117316666667,-96.98253,4.7,6.9,322,984.68,15.8,64,18.40,0.0,1010.89,360.0
2018-06-17 07:20,50.9117416666667,-96.9825116666667,5.7,8.3,323,984.67,15.9,64,18.38,0.0,1010.88,360.0
2018-06-17 07:30,50.911735,-96.9825166666667,5.8,8.6,322,984.67,15.8,65,18.37,0.0,1010.89,360.0
2018-06-17 07:40,50.9117333333333,-96.9825133333333,5.8,8.1,325,984.75,15.6,67,18.35,0.0,1010.98,360.0
2018-06-17 07:50,50.9117333333333,-96.9825183333333,5.8,7.6,330,984.60,15.3,69,18.33,0.0,1010.84,360.0
2018-06-17 08:00,50.911725,-96.982515,6.3,7.9,341,984.48,15.2,70,18.31,0.0,1010.72,129.6
2018-06-17 08:10,50.911735,-96.9825266666667,6.5,8.1,342,984.50,15.3,69,18.30,0.0,1010.74,129.6
2018-06-17 08:20,50.911735,-96.9825266666667,6.6,8.4,342,984.62,15.5,68,18.28,0.0,1010.86,129.6
2018-06-17 08:30,50.9117383333333,-96.9825316666667,5.7,8.1,335,984.82,15.5,68,18.27,0.0,1011.07,129.6
2018-06-17 08:40,50.91174,-96.98253,5.1,7.1,328,985.05,15.4,68,18.26,0.0,1011.31,129.6
2018-06-17 08:50,50.9117416666667,-96.9825333333333,5.7,7.2,332,985.11,15.3,69,18.24,0.0,1011.38,129.6
2018-06-17 09:00,50.9117416666667,-96.98253,6.1,7.4,341,985.15,15.2,71,18.22,0.0,1011.43,360.0
2018-06-17 09:10,50.9117383333333,-96.98253,8.1,9.4,343,985.05,15.4,69,18.21,0.0,1011.31,360.0
2018-06-17 09:20,50.9117383333333,-96.9825283333333,7.5,9.6,342,984.98,15.4,70,18.19,0.0,1011.25,360.0
2018-06-17 09:30,50.9117283333333,-96.9825183333333,6.8,8.1,342,984.99,15.4,70,18.15,0.0,1011.26,360.0
2018-06-17 09:40,50.9117316666667,-96.9825166666667,6.1,7.7,332,985.09,15.4,71,18.15,0.0,1011.38,360.0
2018-06-17 09:50,50.9117283333333,-96.9825233333333,6.0,7.8,329,985.17,15.2,71,18.14,0.0,1011.47,360.0
2018-06-17 10:00,50.9117283333333,-96.9825266666667,5.3,7.6,327,985.28,15.1,72,18.12,0.0,1011.59,90.0
2018-06-17 10:10,50.9117266666667,-96.9825266666667,5.6,7.1,334,985.29,14.9,73,18.11,0.0,1011.59,90.0
2018-06-17 10:20,50.9117266666667,-96.982525,4.1,5.8,328,985.38,14.8,74,18.10,0.0,1011.69,90.0
2018-06-17 10:30,50.9117266666667,-96.982525,4.5,6.4,326,985.53,14.8,74,18.08,0.0,1011.85,90.0
2018-06-17 10:40,50.9117266666667,-96.9825316666667,4.9,6.1,326,985.65,14.7,75,18.07,0.0,1011.99,90.0
2018-06-17 10:50,50.91173,-96.9825116666667,5.2,7.4,327,985.72,14.7,75,18.05,0.0,1012.07,90.0
2018-06-17 11:00,50.91173,-96.9825166666667,5.5,7.2,329,985.67,14.5,77,18.04,0.0,1012.01,37.5
2018-06-17 11:10,50.9117316666667,-96.9825216666667,6.4,8.2,332,985.63,14.5,77,18.02,0.0,1011.97,37.5
2018-06-17 11:20,50.9117366666667,-96.9825083333333,5.5,7.5,329,985.65,14.5,78,18.00,0.0,1011.99,37.5
2018-06-17 11:30,50.9117366666667,-96.9825233333333,5.2,6.9,329,985.66,14.7,77,17.99,0.0,1011.99,37.5
2018-06-17 11:40,50.911735,-96.98252,5.5,8.0,327,985.75,14.8,78,17.97,0.0,1012.09,37.5
2018-06-17 11:50,50.9117283333333,-96.9825366666667,5.6,9.1,325,985.94,14.9,77,17.96,0.0,1012.29,37.5
2018-06-17 12:00,50.9117333333333,-96.9825316666667,6.1,9.2,326,985.98,15.1,77,17.95,0.0,1012.32,360.0
2018-06-17 12:10,50.91173,-96.9825233333333,6.3,9.3,324,985.97,15.2,78,17.93,0.0,1012.31,360.0
2018-06-17 12:20,50.91173,-96.9825233333333,5.8,8.6,332,985.96,15.3,79,17.92,0.0,1012.30,360.0
2018-06-17 12:30,50.91173,-96.9825233333333,6.8,8.6,340,985.85,15.6,76,17.91,0.0,1012.18,360.0
2018-06-17 12:40,50.9117283333333,-96.9825033333333,6.3,8.6,342,985.88,15.9,76,17.89,0.0,1012.20,360.0
2018-06-17 12:50,50.9117333333333,-96.982525,5.9,7.8,343,985.98,16.2,75,17.88,0.0,1012.29,360.0
2018-06-17 13:00,50.9117333333333,-96.9825133333333,5.2,7.6,344,985.97,16.5,75,17.88,0.0,1012.26,90.0
2018-06-17 13:10,50.9117333333333,-96.9825133333333,6.3,8.4,344,986.02,16.8,74,17.88,0.0,1012.31,90.0
2018-06-17 13:20,50.9117333333333,-96.9825166666667,5.5,7.4,338,986.25,17.1,71,17.89,0.0,1012.52,90.0
2018-06-17 13:30,50.911725,-96.9825166666667,6.2,8.6,341,986.30,17.6,68,17.89,0.0,1012.54,90.0
2018-06-17 13:40,50.9117316666667,-96.9825166666667,6.1,8.6,351,986.27,17.7,68,17.90,0.0,1012.50,90.0
2018-06-17 13:50,50.91173,-96.9825216666667,5.1,7.3,349,986.35,18.1,66,17.91,0.0,1012.55,90.0
2018-06-17 14:00,50.9117333333333,-96.9825183333333,5.1,7.2,350,986.32,18.5,64,17.92,0.0,1012.51,270.0
2018-06-17 14:10,50.9117266666667,-96.9825266666667,5.6,8.9,345,986.42,19.2,60,17.94,0.0,1012.57,270.0
2018-06-17 14:20,50.9117266666667,-96.9825233333333,5.9,8.5,4,986.38,19.6,56,17.97,0.0,1012.50,270.0
2018-06-17 14:30,50.911725,-96.9825233333333,4.2,6.7,360,986.41,20.1,53,18.00,0.0,1012.49,270.0
2018-06-17 14:40,50.9117266666667,-96.982525,4.0,7.5,17,986.38,20.7,51,18.03,0.0,1012.42,270.0
2018-06-17 14:50,50.9117266666667,-96.9825233333333,4.0,6.4,47,986.39,20.7,57,18.06,0.0,1012.42,270.0
2018-06-17 15:00,50.911725,-96.9825216666667,4.7,6.1,49,986.30,20.1,63,18.10,0.0,1012.34,132.1
2018-06-17 15:10,50.9117283333333,-96.9825216666667,4.6,7.6,48,986.22,20.1,61,18.12,0.0,1012.24,132.1
2018-06-17 15:20,50.9117283333333,-96.982525,4.3,6.4,52,986.27,20.4,60,18.13,0.0,1012.26,132.1
2018-06-17 15:30,50.9117283333333,-96.982525,5.0,7.5,59,986.32,20.7,57,18.15,0.0,1012.29,132.1
2018-06-17 15:40,50.9117283333333,-96.982525,4.5,7.4,61,986.29,21.3,56,18.18,0.0,1012.22,132.1
2018-06-17 15:50,50.911745,-96.9825166666667,4.1,6.5,64,986.34,21.5,56,18.21,0.0,1012.24,132.1
2018-06-17 16:00,50.9117433333333,-96.982515,4.9,7.3,73,986.42,21.7,54,18.25,0.0,1012.28,360.0
2018-06-17 16:10,50.91174,-96.98252,4.9,7.0,74,986.39,22.0,53,18.30,0.0,1012.22,360.0
2018-06-17 16:20,50.9117216666667,-96.9825183333333,6.4,8.5,77,986.42,21.9,52,18.34,0.0,1012.23,360.0
2018-06-17 16:30,50.9117266666667,-96.9825266666667,6.0,7.7,98,986.38,21.5,56,18.38,0.0,1012.18,360.0
2018-06-17 16:40,50.9117283333333,-96.9825283333333,6.8,8.6,88,986.41,21.2,57,18.41,0.0,1012.23,360.0
2018-06-17 16:50,50.911725,-96.982515,5.5,7.4,86,986.41,22.0,47,18.44,0.0,1012.22,360.0
2018-06-17 17:00,50.91173,-96.9825183333333,4.8,6.0,119,986.45,21.3,50,18.48,0.0,1012.29,0.0
2018-06-17 17:10,50.9117283333333,-96.9825216666667,5.3,6.4,136,986.47,20.5,53,18.51,0.0,1012.34,0.0
2018-06-17 17:20,50.91173,-96.9825233333333,5.0,5.7,153,986.58,20.0,57,18.53,0.0,1012.45,0.0
2018-06-17 17:30,50.9117283333333,-96.9825233333333,5.3,6.0,139,986.61,20.0,54,18.53,0.0,1012.46,0.0
2018-06-17 17:40,50.91173,-96.9825266666667,5.0,5.6,138,986.55,20.3,55,18.52,0.0,1012.38,0.0
2018-06-17 17:50,50.9117283333333,-96.982525,5.1,6.6,113,986.49,21.4,49,18.53,0.0,1012.25,0.0
2018-06-17 18:00,50.9117283333333,-96.9825283333333,6.4,7.3,123,986.45,20.7,49,18.56,0.0,1012.24,350.2
2018-06-17 18:10,50.9117283333333,-96.9825283333333,5.2,7.0,124,986.46,20.9,52,18.56,0.0,1012.24,350.2
2018-06-17 18:20,50.9117266666667,-96.9825266666667,4.7,6.4,131,986.42,21.2,52,18.58,0.0,1012.21,350.2
2018-06-17 18:30,50.9117266666667,-96.9825266666667,4.5,5.7,125,986.34,21.3,49,18.62,0.0,1012.13,350.2
2018-06-17 18:40,50.9117266666667,-96.9825266666667,4.8,5.8,135,986.40,21.3,47,18.65,0.0,1012.15,350.2
2018-06-17 18:50,50.9117466666667,-96.982565,6.2,7.3,134,986.42,21.4,48,18.68,0.0,1012.21,350.2
2018-06-17 19:00,50.91173,-96.9825366666667,5.3,6.7,132,986.46,21.5,48,18.72,0.0,1012.27,228.9
2018-06-17 19:10,50.911735,-96.9825216666667,5.9,7.3,127,986.53,21.4,47,18.75,0.0,1012.37,228.9
2018-06-17 19:20,50.9117066666667,-96.98252,6.5,8.7,123,986.46,21.5,44,18.77,0.0,1012.30,228.9
2018-06-17 19:30,50.9117383333333,-96.9825216666667,6.6,8.4,121,986.43,22.0,46,18.78,0.0,1012.23,228.9
2018-06-17 19:40,50.91173,-96.9825333333333,5.1,7.8,141,986.51,21.7,50,18.80,0.0,1012.28,228.9
2018-06-17 19:50,50.9117166666667,-96.9824833333333,3.8,6.8,153,986.53,21.8,48,18.83,0.0,1012.32,228.9
2018-06-17 20:00,50.9117216666667,-96.98252,2.4,4.3,143,986.61,22.3,43,18.86,0.0,1012.38,360.0
2018-06-17 20:10,50.9117266666667,-96.98253,6.2,8.1,119,986.55,22.4,46,18.87,0.0,1012.30,360.0
2018-06-17 20:20,50.9117283333333,-96.98253,4.2,6.9,96,986.69,23.0,44,18.91,0.0,1012.41,360.0
2018-06-17 20:30,50.9117283333333,-96.98253,5.6,12.1,42,986.67,23.3,41,18.93,0.0,1012.38,360.0
2018-06-17 20:40,50.91173,-96.9825283333333,8.1,12.4,50,986.59,23.2,45,18.93,0.0,1012.30,360.0
2018-06-17 20:50,50.9117316666667,-96.9825266666667,7.5,11.3,79,986.54,23.6,44,18.93,0.0,1012.22,360.0
2018-06-17 21:00,50.9117383333333,-96.9825383333333,7.9,10.2,80,986.58,23.7,44,18.95,0.0,1012.27,347.1
2018-06-17 21:10,50.9117416666667,-96.9825233333333,5.9,8.7,102,986.62,23.2,47,18.98,0.0,1012.31,347.1
2018-06-17 21:20,50.9117416666667,-96.9825266666667,2.8,5.2,77,986.72,23.6,43,19.02,0.0,1012.38,347.1
2018-06-17 21:30,50.9117333333333,-96.982485,3.8,15.2,335,986.78,23.9,38,19.05,0.0,1012.45,347.1
2018-06-17 21:40,50.9117383333333,-96.98251,9.9,17.1,350,986.69,24.0,34,19.08,0.0,1012.35,347.1
2018-06-17 21:50,50.91174,-96.9825233333333,11.2,19.2,351,986.79,24.3,34,19.11,0.0,1012.41,347.1
2018-06-17 22:00,50.9117366666667,-96.98252,11.1,18.5,345,986.81,24.6,34,19.17,0.0,1012.41,54.2
2018-06-17 22:10,50.9117316666667,-96.9825166666667,11.4,20.4,6,986.94,24.0,35,19.23,0.0,1012.55,54.2
2018-06-17 22:20,50.91173,-96.982525,9.1,14.6,21,987.04,23.1,35,19.28,0.0,1012.68,54.2
2018-06-17 22:30,50.9117266666667,-96.9825266666667,11.1,17.7,29,987.04,23.4,35,19.28,0.0,1012.67,54.2
2018-06-17 22:40,50.9117,-96.9825283333333,12.6,18.7,38,987.07,23.2,38,19.31,0.0,1012.69,54.2
2018-06-17 22:50,50.9117266666667,-96.9825316666667,12.6,21.3,20,987.16,23.1,34,19.36,0.0,1012.79,54.2
2018-06-17 23:00,50.9117266666667,-96.9825383333333,10.4,16.0,13,987.34,23.0,34,19.39,0.0,1012.99,350.2
2018-06-17 23:10,50.91173,-96.98254,10.6,17.6,15,987.43,22.8,34,19.40,0.0,1013.07,350.2
2018-06-17 23:20,50.9117283333333,-96.98254,10.7,17.3,22,987.45,22.9,34,19.39,0.0,1013.08,350.2
2018-06-17 23:30,50.9117266666667,-96.9825366666667,11.2,19.5,22,987.52,22.9,33,19.39,0.0,1013.15,350.2
2018-06-17 23:40,50.9117416666667,-96.98255,10.7,16.9,23,987.58,23.0,33,19.40,0.0,1013.19,350.2
